Total_Precipitation_Accumulation
1.66 2.00 2.52 3.23 3.69 3.87 3.95 4.10 4.09 4.15 4.17 4.13 4.15 4.34 4.49 4.50 4.48 4.62 4.63 4.47 4.40 4.54 4.85 4.88 4.72 4.41 4.09 3.86 3.80 3.78 3.58 3.30 3.16 3.16 2.98 2.66 2.38 2.33 2.25 2.23 2.22 2.07 2.04
1.56 2.03 2.51 2.97 3.28 3.62 3.81 4.01 4.02 4.21 4.47 4.84 5.34 5.62 5.72 5.59 5.39 5.27 5.20 5.07 4.97 5.05 5.17 5.23 4.87 4.51 4.31 4.03 3.76 3.68 3.52 3.26 3.22 3.21 3.24 2.89 2.66 2.28 1.98 2.06 2.08 2.02 2.05
1.60 1.95 2.18 2.56 2.85 3.22 3.56 3.83 4.15 4.57 5.08 5.72 6.50 6.81 6.55 6.13 5.91 5.55 5.46 5.25 5.04 5.01 5.10 4.83 4.58 4.37 4.17 3.95 3.73 3.67 3.61 3.32 3.19 3.27 3.45 3.15 2.82 2.49 2.21 1.98 1.92 2.00 2.05
1.57 1.74 2.00 2.29 2.47 2.86 3.33 3.79 4.35 4.97 5.61 6.21 6.66 6.84 6.72 6.44 6.14 5.69 5.27 4.88 4.57 4.38 4.27 4.16 3.93 3.83 3.69 3.52 3.35 3.35 3.37 3.25 3.01 2.96 2.84 2.78 2.62 2.59 2.37 2.12 1.94 1.93 1.99
1.43 1.58 1.80 2.05 2.35 2.78 3.27 3.76 4.27 4.98 5.47 6.01 6.41 6.61 6.61 6.50 6.09 5.41 4.74 4.32 4.00 3.74 3.46 3.26 3.16 3.15 3.09 2.88 2.70 2.67 2.71 2.69 2.63 2.59 2.45 2.42 2.40 2.36 2.27 2.17 2.08 2.02 1.90
1.60 1.61 1.69 1.86 2.29 2.71 3.23 3.61 3.95 4.66 5.35 5.83 6.18 6.44 6.40 6.17 5.55 4.84 4.28 3.92 3.61 3.35 3.10 2.92 2.75 2.67 2.58 2.41 2.26 2.21 2.23 2.27 2.29 2.34 2.34 2.23 2.18 2.13 2.16 2.04 1.96 1.94 1.84
1.52 1.53 1.74 1.87 2.35 2.74 3.06 3.34 3.59 4.01 4.53 5.00 5.30 5.46 5.48 5.27 4.85 4.42 3.94 3.57 3.31 3.05 2.74 2.42 2.26 2.17 2.14 2.08 2.01 1.93 1.91 1.97 2.00 1.98 1.99 2.01 1.96 1.99 2.07 2.10 1.99 1.87 1.76
1.46 1.47 1.70 1.93 2.09 2.32 2.57 2.88 3.10 3.37 3.64 3.90 4.13 4.09 4.07 4.03 3.83 3.49 3.07 2.79 2.51 2.33 2.17 1.96 1.85 1.83 1.85 1.82 1.80 1.69 1.59 1.65 1.77 1.79 1.88 1.88 1.83 1.92 1.98 2.07 2.16 2.13 1.92
1.40 1.49 1.68 1.82 1.90 2.03 2.23 2.40 2.49 2.69 2.78 2.75 2.74 2.80 2.79 2.80 2.72 2.60 2.36 2.05 1.80 1.66 1.62 1.58 1.55 1.43 1.44 1.51 1.53 1.50 1.47 1.52 1.54 1.57 1.64 1.70 1.73 1.81 1.82 1.91 2.08 2.30 2.21
1.34 1.45 1.59 1.76 1.85 1.88 2.05 2.15 2.08 2.11 2.17 2.20 2.13 2.04 2.09 2.14 2.12 2.06 1.91 1.74 1.55 1.40 1.32 1.31 1.27 1.17 1.13 1.19 1.29 1.32 1.38 1.48 1.45 1.42 1.44 1.48 1.53 1.74 1.86 1.94 2.06 2.25 2.34
1.40 1.53 1.53 1.57 1.57 1.60 1.65 1.71 1.72 1.74 1.76 1.75 1.78 1.76 1.72 1.69 1.70 1.74 1.70 1.57 1.43 1.31 1.23 1.14 1.13 1.13 1.04 1.01 1.09 1.11 1.17 1.30 1.34 1.29 1.32 1.35 1.45 1.60 1.65 1.79 1.92 2.13 2.34
1.57 1.61 1.55 1.44 1.45 1.55 1.58 1.55 1.53 1.50 1.53 1.57 1.62 1.68 1.54 1.46 1.47 1.50 1.49 1.37 1.32 1.26 1.19 1.13 1.09 1.04 0.97 0.95 0.95 0.95 0.98 1.08 1.12 1.17 1.23 1.15 1.20 1.36 1.49 1.63 1.71 1.85 2.02
1.76 1.80 1.71 1.54 1.49 1.50 1.49 1.35 1.29 1.27 1.19 1.22 1.35 1.46 1.35 1.25 1.27 1.26 1.24 1.23 1.19 1.15 1.08 1.04 0.97 0.91 0.92 0.95 0.94 0.90 0.90 0.92 0.96 1.05 1.14 1.17 1.28 1.35 1.44 1.57 1.60 1.70 1.76
1.69 1.77 1.75 1.57 1.54 1.43 1.36 1.19 1.14 1.14 1.09 1.06 1.08 1.17 1.20 1.18 1.15 1.14 1.12 1.06 1.01 0.98 0.91 0.85 0.83 0.83 0.80 0.77 0.79 0.81 0.83 0.88 0.89 0.94 0.99 1.08 1.22 1.34 1.50 1.54 1.61 1.72 1.83
1.71 1.83 1.75 1.53 1.52 1.49 1.43 1.21 1.09 1.09 1.07 1.08 1.08 1.08 1.08 1.02 1.03 1.07 1.05 0.93 0.88 0.81 0.78 0.76 0.74 0.73 0.71 0.65 0.68 0.75 0.78 0.89 0.93 0.95 0.95 0.95 1.03 1.19 1.31 1.36 1.56 1.82 1.98
1.74 1.71 1.61 1.54 1.54 1.53 1.46 1.28 1.13 1.06 1.07 1.13 1.14 1.11 1.10 1.04 1.00 1.03 1.04 0.96 0.92 0.88 0.80 0.80 0.76 0.69 0.58 0.60 0.62 0.66 0.76 0.86 0.92 1.00 0.97 0.87 0.86 0.91 0.97 1.05 1.20 1.48 1.74
1.93 1.86 1.72 1.65 1.69 1.62 1.45 1.35 1.20 1.12 1.12 1.12 1.08 1.12 1.14 1.06 0.97 0.92 1.02 1.01 0.99 0.89 0.83 0.82 0.77 0.69 0.59 0.56 0.54 0.55 0.66 0.82 0.91 0.99 1.00 0.84 0.74 0.88 0.98 1.00 1.02 1.14 1.34
1.92 1.84 1.74 1.73 1.69 1.63 1.54 1.44 1.26 1.12 1.07 1.07 1.02 1.01 1.03 1.04 0.98 0.95 0.97 0.98 1.00 0.97 0.88 0.80 0.79 0.79 0.59 0.55 0.53 0.54 0.65 0.79 0.84 0.86 0.91 0.97 0.97 0.90 0.95 1.01 1.15 1.32 1.43
1.78 1.73 1.68 1.70 1.62 1.53 1.47 1.40 1.26 1.11 0.98 0.96 0.95 0.90 0.86 0.86 0.85 0.85 0.90 0.99 1.01 0.97 0.85 0.79 0.84 0.82 0.65 0.56 0.54 0.55 0.66 0.76 0.77 0.70 0.70 0.76 0.82 0.80 0.88 1.06 1.31 1.51 1.69
1.57 1.51 1.45 1.45 1.47 1.38 1.33 1.32 1.27 1.14 0.96 0.84 0.77 0.75 0.77 0.77 0.80 0.83 0.88 0.88 0.93 0.92 0.79 0.71 0.74 0.71 0.62 0.54 0.50 0.54 0.60 0.70 0.73 0.77 0.75 0.78 0.77 0.78 0.93 1.14 1.46 1.68 1.78
1.48 1.38 1.28 1.25 1.25 1.18 1.09 1.09 1.09 1.00 0.79 0.67 0.63 0.66 0.66 0.66 0.67 0.78 0.82 0.82 0.79 0.83 0.80 0.72 0.67 0.63 0.52 0.45 0.47 0.49 0.51 0.59 0.69 0.75 0.83 0.87 0.88 0.82 0.93 1.16 1.41 1.64 1.70
1.39 1.27 1.20 1.10 1.02 0.95 0.99 0.99 0.88 0.74 0.64 0.58 0.57 0.58 0.57 0.49 0.51 0.69 0.74 0.73 0.79 0.76 0.75 0.78 0.76 0.63 0.51 0.39 0.34 0.37 0.41 0.49 0.71 0.83 0.85 0.87 0.89 0.88 1.01 1.14 1.41 1.67 1.83
1.21 1.08 0.97 0.87 0.81 0.86 0.92 0.88 0.74 0.61 0.56 0.60 0.63 0.57 0.50 0.49 0.48 0.55 0.60 0.63 0.71 0.67 0.63 0.67 0.67 0.58 0.48 0.36 0.26 0.25 0.30 0.40 0.55 0.72 0.87 0.88 0.84 0.98 1.24 1.43 1.58 1.77 1.90
1.01 0.90 0.86 0.81 0.80 0.78 0.71 0.66 0.52 0.46 0.52 0.62 0.64 0.59 0.55 0.51 0.45 0.43 0.41 0.42 0.46 0.49 0.55 0.57 0.56 0.52 0.46 0.34 0.26 0.27 0.30 0.37 0.46 0.59 0.79 0.95 1.03 1.18 1.47 1.70 1.84 1.91 1.86
0.85 0.77 0.81 0.78 0.73 0.64 0.58 0.51 0.45 0.45 0.55 0.59 0.55 0.52 0.48 0.46 0.44 0.36 0.31 0.30 0.32 0.33 0.39 0.43 0.45 0.45 0.38 0.28 0.28 0.29 0.30 0.36 0.44 0.53 0.74 0.96 1.09 1.30 1.53 1.66 1.68 1.67 1.63
0.68 0.65 0.68 0.66 0.59 0.53 0.52 0.45 0.39 0.39 0.50 0.53 0.52 0.45 0.42 0.40 0.37 0.35 0.33 0.28 0.25 0.24 0.24 0.26 0.27 0.28 0.28 0.25 0.24 0.26 0.31 0.38 0.47 0.56 0.81 1.03 1.14 1.32 1.45 1.56 1.53 1.45 1.41